This is the latest recevied weather packets stored in our database for station/object KC5AV. If no packets are shown the sender has not sent any weather packets the latest 10 day(s).
| Time | Temp. | Humidity | Pressure | Rain* | Wind** | Luminosity | Snow |
|---|---|---|---|---|---|---|---|
| 1777986107 | 21.11° C | 86% | 1008.5 hPa | 0 mm | - | 21 W/m² | - |
| 1777985803 | 21.11° C | 86% | 1008.5 hPa | 0 mm | - | 21 W/m² | - |
| 1777985500 | 21.11° C | 86% | 1008.5 hPa | 0 mm | - | 22 W/m² | - |
| 1777985197 | 21.11° C | 86% | 1008.4 hPa | 0 mm | - | 21 W/m² | - |
| 1777984893 | 21.11° C | 86% | 1008.2 hPa | 0 mm | - | 18 W/m² | - |
| 1777984589 | 21.11° C | 86% | 1008.2 hPa | 0 mm | - | 18 W/m² | - |
| 1777984286 | 21.11° C | 86% | 1008.4 hPa | 0 mm | - | 13 W/m² | - |
| 1777983983 | 20.56° C | 86% | 1008.1 hPa | 0 mm | - | 12 W/m² | - |
| 1777983680 | 20.56° C | 86% | 1008.3 hPa | 0 mm | - | 10 W/m² | - |
| 1777983377 | 20.56° C | 87% | 1008.2 hPa | 0 mm | - | 12 W/m² | - |
| 1777983073 | 20.56° C | 87% | 1008.3 hPa | 0 mm | - | 8 W/m² | - |
| 1777982770 | 20.56° C | 87% | 1008.2 hPa | 0 mm | - | 8 W/m² | - |
| 1777982466 | 20.56° C | 87% | 1008.3 hPa | 0 mm | - | 5 W/m² | - |
| 1777982160 | 20° C | 87% | 1008.1 hPa | 0 mm | - | 5 W/m² | - |
| 1777981858 | 20° C | 87% | 1008.2 hPa | 0 mm | - | 5 W/m² | - |
| 1777981555 | 20° C | 87% | 1008.1 hPa | 0 mm | - | 3 W/m² | - |
| 1777981251 | 20° C | 87% | 1008 hPa | 0 mm | - | 2 W/m² | - |
| 1777980947 | 20° C | 87% | 1008 hPa | 0 mm | - | 1 W/m² | - |
| 1777980644 | 20° C | 87% | 1008.1 hPa | 0 mm | - | 0 W/m² | - |
| 1777980340 | 20° C | 87% | 1008 hPa | 0 mm | - | 0 W/m² | - |
| 1777980039 | 20° C | 87% | 1007.9 hPa | 0 mm | - | 0 W/m² | - |
| 1777979738 | 20° C | 88% | 1007.9 hPa | 0 mm | - | 0 W/m² | - |
| 1777979434 | 20° C | 87% | 1007.9 hPa | 0 mm | - | 0 W/m² | - |
| 1777979131 | 20° C | 87% | 1007.9 hPa | 0 mm | - | 0 W/m² | - |
| 1777978828 | 20° C | 87% | 1007.9 hPa | 0 mm | - | 0 W/m² | - |
* Rain latest hour (hover to see other rain measurements)
** Current wind speed in m/s (hover to see current wind gust speed)